This demonstration page uses our WeatherBlox Daily Observations layout. Learn more.

Left ArrowRight Arrow

38.88101, -77.10428

Hourly Observations for January 20, 2015

Temp ( °F °C ) Dew Point ( °F °C ) Humidity (%) Winds ( mph kmh ) Pressure ( in mb ) Visibility ( mi km ) Precip ( " mm )
12:52 am 00:52 Mostly Cloudy 34 1.1 27 -2.8 76 76 N N/A 29.96 1015 10 16 N/A
1:52 am 01:52 Mostly Cloudy 34 1.1 28 -2.2 79 79 N N/A 29.97 1015 10 16 N/A
2:52 am 02:52 Mostly Cloudy 32 undefined 26 -3.3 79 79 N N/A 29.96 1015 10 16 N/A
3:52 am 03:52 Mostly Cloudy 32 undefined 26 -3.3 79 79 N N/A 29.94 1014 10 16 N/A
4:52 am 04:52 Partly Cloudy 32 undefined 27 -2.8 82 82 N N/A 29.93 1014 10 16 N/A
5:52 am 05:52 Mostly Cloudy 31 -0.6 25 -3.9 79 79 N 3 6 29.94 1014 10 16 N/A
6:52 am 06:52 Mostly Cloudy 33 0.6 27 -2.8 78 78 N N/A 29.95 1014 10 16 N/A
7:52 am 07:52 Mostly Cloudy 34 1.1 27 -2.8 76 76 N N/A 29.95 1014 10 16 N/A
8:52 am 08:52 Mostly Cloudy 36 2.2 27 -2.8 70 70 N N/A 29.97 1015 10 16 N/A
9:52 am 09:52 Cloudy 37 2.8 30 -1.1 76 76 N N/A 29.97 1015 10 16 N/A
10:52 am 10:52 Cloudy 40 4.4 29 -1.7 65 65 SSE 5 7 29.97 1015 10 16 N/A
11:52 am 11:52 Mostly Cloudy 43 6.1 28 -2.2 56 56 N N/A 29.96 1014 10 16 N/A
12:52 pm 12:52 Mostly Cloudy 47 8.3 27 -2.8 46 46 S 3 6 29.92 1013 10 16 N/A
1:52 pm 13:52 Cloudy 48 8.9 26 -3.3 42 42 N N/A 29.91 1013 10 16 N/A
2:52 pm 14:52 Cloudy 48 8.9 26 -3.3 42 42 N N/A 29.91 1013 10 16 N/A
3:52 pm 15:52 Cloudy 49 9.4 31 -0.6 50 50 N 7 11 29.94 1014 10 16 N/A
4:52 pm 16:52 Mostly Cloudy 47 8.3 31 -0.6 54 54 N 5 7 29.95 1014 10 16 N/A
5:52 pm 17:52 Partly Cloudy 45 7.2 28 -2.2 52 52 ENE 7 11 29.96 1015 10 16 N/A
6:52 pm 18:52 Partly Cloudy 44 6.7 27 -2.8 51 51 N N/A 29.99 1016 10 16 N/A
7:52 pm 19:52 Mostly Clear 40 4.4 28 -2.2 63 63 NNE 5 7 30.01 1016 10 16 N/A
8:52 pm 20:52 Mostly Clear 40 4.4 28 -2.2 63 63 NE 3 6 30.02 1017 10 16 N/A
9:52 pm 21:52 Mostly Clear 37 2.8 29 -1.7 73 73 N 5 7 30.03 1017 10 16 N/A
10:52 pm 22:52 Cloudy 37 2.8 29 -1.7 73 73 N N/A 30.05 1018 10 16 N/A
11:52 pm 23:52 Cloudy 37 2.8 28 -2.2 70 70 NNE 5 7 30.07 1018 10 16 N/A

Powered by AerisWeather